{"data":{"norad_id":55501,"epoch":"2026-05-24T18:03:58.813920Z","epoch_age_seconds":90190,"freshness":"FRESH","line1":"1 55501U 23015BE  26144.75276405  .00002996  00000+0  11838-3 0  9999","line2":"2 55501  43.0034 270.5312 0001544 263.1289  96.9387 15.27573038182225","mean_motion":15.27573038,"eccentricity":0.0001544,"inclination_deg":43.0034,"raan_deg":270.5312,"arg_perigee_deg":263.1289,"mean_anomaly_deg":96.9387,"bstar":0.00011838,"rev_number":18222,"period_min":94.267178339659,"perigee_km":482.01057249942,"apogee_km":484.12931320337,"semimajor_km":6861.2069428514,"source":"CELESTRAK","updated_at":"2026-05-25T13:38:17.833276Z"}}